Starlink 4165

operational
NORAD ID: 53286 Int'l Des: 2022-086 Owner: SPXS Country: US Constellation: starlink
LEOCIRCULAR

About Starlink 4165

Description loading...

Live Position

Loading 3D Globe...

Upcoming Passes

Altitude History

Altitude vs Time

uPlot chart will show altitude changes over time

Two-Line Element Set

1 53286U 22086AW 26061.61546380 -.00000127 00000-0 10116-4 0 9994
2 53286 53.2167 215.5687 0001326 87.7794 272.3350 15.08837829200126
Epoch: Mar 2, 2026 • Age: 26 hours

Current Status

Altitude 557.5 km
Velocity 7.58 km/s
Sub-Earth Point -49.07°S, 30.18°W
Launch Date Jul 24, 2022
Age 3.6 years
Type internet

Technical Details

Classification Payload
Mass 297.00 kg
Dry Mass 275.00 kg
Total Mass 297.00 kg
Length 0.20 m
Diameter 2.80 m
Span 9.00 m
Shape Box + pan
Manufacturer SPXS
Bus Type Starlink
Phase Status In Orbit
Owner/State SPXS/US

Large Constellations

Loading constellations...